SCP
1 0 0 1 1 0 0 0 0 0 0 0 0 0 0 1 0 0 0 0 0 0 0 0 0 0 0 0 0 0 0 0 0 0 0 0 0 0 0 0 0 0 1 1
1 0 1 1 1 0 0 0 0 0 0 0 0 0 0 0 0 0 0 0 0 0 0 0 0 0 0 0 0 0 0 0 0 0 0 0 0 0 0 0 0 0 0 1
0 0 0 1 0 0 0 0 0 0 0 0 0 0 0 0 0 0 0 0 0 0 0 0 0 0 0 0 0 0 0 0 0 0 0 0 0 0 0 0 0 0 0 0
0 0 0 0 0 0 0 0 0 0 0 0 0 0 0 0 0 0 0 0 0 0 0 0 0 0 0 0 0 0 0 0 0 0 0 0 0 0 0 0 0 0 0 0
0 0 0 0 0 0 0 0 0 0 0 0 0 0 0 0 0 0 0 0 0 0 0 0 0 0 0 0 0 0 0 0 0 0 0 0 0 0 0 0 0 0 0 0
0 0 0 0 0 0 0 0 0 0 0 0 0 0 0 0 0 0 0 0 0 0 0 0 0 0 0 0 0 0 0 0 0 0 0 0 0 0 0 0 0 0 0 0
0 0 0 0 0 0 0 0 0 0 0 0 0 0 0 0 0 0 0 0 0 0 0 0 0 0 0 0 0 0 0 0 0 0 0 0 0 0 0 0 0 0 0 0
0 0 0 0 0 0 0 0 0 0 0 0 0 0 0 0 0 0 0 0 0 0 0 0 0 0 0 0 0 0 0 0 0 0 0 0 0 0 0 0 0 0 0 0
0 0 0 0 0 0 0 0 0 0 0 0 0 0 0 0 0 0 0 0 0 0 0 0 0 0 0 0 0 0 0 0 0 0 0 0 0 0 0 0 0 0 0 0
0 0 0 0 0 0 0 0 0 0 0 0 0 0 0 0 0 0 0 0 0 0 0 0 0 0 0 0 0 0 0 0 0 0 0 0 0 0 0 0 0 0 0 0
0 0 0 0 0 0 0 0 0 0 0 0 0 0 0 0 0 0 0 0 0 0 0 0 0 0 0 0 0 0 0 0 0 0 0 0 0 0 0 0 0 0 0 0
0 0 0 0 0 0 0 0 0 0 0 0 0 0 0 0 0 -0 0 0 0 0 0 0 0 0 0 0 0 0 0 0 0 0 0 0 0 0 0 0 0 0 0 0
0 0 0 0 0 0 0 0 0 0 0 0 0 -0 -0 0 0 0 0 0 0 0 0 0 0 0 0 0 0 0 0 0 0 0 0 0 0 0 0 0 0 0 0 0
0 0 0 0 0 0 0 -0 0 0 0 0 0 0 0 0 0 0 0 0 0 0 0 0 0 0 0 0 0 0 0 0 0 0 0 0 0 0 0 0 0 0 0 0
0 0 0 0 0 0 0 0 0 0 0 0 0 0 0 0 0 0 0 0 0 0 0 0 0 0 0 0 0 0 0 0 0 0 0 0 0 0 0 0 0 0 0 0
0 0 0 0 0 0 0 0 0 0 0 0 0 0 0 0 0 0 0 0 0 0 0 0 0 0 0 0 0 0 0 0 0 0 0 0 0 0 0 0 0 0 0 0
0 0 0 0 0 0 0 0 0 0 0 0 0 0 0 0 0 0 0 0 0 0 0 0 0 0 0 0 0 0 0 0 0 0 0 0 0 0 0 0 0 0 0 0
0 0 0 0 0 0 0 0 0 0 0 0 0 0 0 0 0 0 0 0 0 0 0 0 0 0 0 0 0 0 0 0 0 0 0 0 0 0 0 0 0 0 0 0
0 0 0 0 0 0 0 0 0 0 0 0 0 0 0 0 0 0 0 0 0 0 0 0 0 0 0 0 0 0 0 0 0 0 0 0 0 0 0 0 0 0 0 0
0 0 0 0 0 0 0 0 0 0 0 0 0 0 0 0 0 0 0 0 0 0 0 0 0 0 0 0 0 0 0 0 0 0 0 0 0 0 0 0 0 0 0 0
0 0 0 0 0 0 0 0 0 0 0 0 0 0 0 0 0 0 0 0 0 0 0 0 0 0 0 0 0 0 0 0 0 0 0 0 0 0 0 0 0 0 0 0
0 0 0 0 0 0 0 0 0 0 0 0 0 0 0 0 0 0 0 0 0 0 0 0 0 0 0 0 0 0 0 0 0 0 0 0 0 0 0 0 0 0 0 0
0 0 0 0 0 0 0 0 0 0 0 0 0 0 0 0 0 0 0 0 0 0 0 0 0 0 0 0 0 0 0 0 0 0 0 0 0 0 0 0 0 0 0 0
0 0 0 0 0 0 0 0 0 0 0 0 0 0 0 0 0 0 0 0 0 0 0 0 0 0 0 0 0 0 0 0 0 0 0 0 0 0 0 0 0 0 0 0
0 0 0 0 0 0 0 0 0 0 0 0 0 0 0 0 0 0 0 0 0 0 0 0 0 0 0 0 0 0 0 0 0 0 0 0 0 0 0 0 0 0 0 0
0 0 0 0 0 0 0 0 0 0 0 0 0 0 0 0 0 0 0 0 0 0 0 0 0 0 0 0 0 0 0 0 0 0 0 0 0 0 0 0 0 0 0 0
Wind_Speed
13 11 10 6 2 3 7 8 9 2 6 2 6 7 5 11 7 6 5 4 1 2 5 7 3 3 4 5 4 4 5 5 4 3 4 4 4 4 3 3 4 4 4 5
13 14 9 6 5 5 9 10 8 3 6 2 8 8 4 9 8 4 3 2 1 3 3 5 3 5 4 3 4 6 6 4 4 3 3 4 4 3 2 3 3 4 5 4
13 6 7 6 5 6 10 6 6 7 5 5 7 8 6 7 5 4 3 2 3 2 3 4 4 5 3 4 5 6 5 5 5 5 3 4 3 3 3 4 3 4 4 3
4 3 5 6 6 4 5 6 5 6 7 6 5 4 6 9 7 6 5 4 1 2 3 3 3 4 4 4 5 5 5 5 5 5 4 5 4 4 4 3 3 4 4 3
4 8 8 6 3 2 4 4 5 7 8 9 6 6 4 8 6 5 4 3 3 3 4 3 3 3 2 3 3 3 3 4 3 3 3 3 3 3 3 3 4 4 3 3
5 4 0 5 7 3 1 4 7 7 6 9 7 4 4 5 5 4 5 4 4 4 4 4 4 2 1 2 2 1 1 2 2 3 4 3 3 4 4 4 4 4 3 3
8 6 4 4 4 4 5 6 5 7 6 4 7 2 4 9 8 5 3 3 5 4 3 3 3 2 1 1 2 2 2 2 2 3 3 4 3 4 4 4 4 4 3 3
10 11 9 5 3 3 3 6 6 5 3 3 5 3 8 10 7 4 3 2 4 5 4 3 3 2 1 1 1 1 2 2 1 2 3 3 3 2 2 3 4 4 3 3
5 5 8 5 1 3 4 4 3 6 9 5 6 8 9 6 7 5 3 3 2 4 5 4 3 2 1 1 1 0 2 3 2 1 2 2 3 3 3 4 4 4 4 4
6 5 8 5 4 3 5 7 4 4 5 5 3 6 6 7 4 4 4 4 4 4 4 5 4 4 2 2 2 2 2 3 2 2 2 2 2 2 3 3 3 4 5 4
8 4 9 8 8 9 7 5 4 5 5 3 3 5 6 6 4 2 1 2 3 4 4 3 3 3 2 2 2 2 2 2 1 1 2 3 2 1 3 2 2 3 4 5
3 7 6 10 6 2 3 4 4 4 4 2 2 3 5 5 3 1 0 1 2 3 3 4 3 3 2 2 1 1 1 1 0 0 2 3 2 2 3 3 3 4 5 4
3 5 5 7 5 4 5 7 5 4 4 4 3 4 5 5 4 3 2 1 3 4 4 4 4 3 2 2 2 2 2 0 1 0 2 3 3 3 3 3 4 4 5 5
4 8 11 7 4 5 6 7 7 6 5 6 3 3 5 3 3 2 2 2 3 5 5 5 5 4 4 3 3 2 2 2 1 1 2 2 3 3 3 3 3 4 5 5
5 9 13 10 2 2 4 7 10 10 9 8 5 5 3 4 4 2 1 2 2 3 5 5 5 4 5 4 3 2 2 2 1 1 2 1 2 3 2 3 3 3 4 6
6 9 11 10 6 6 8 9 11 12 10 9 7 5 2 4 2 1 2 2 2 3 4 5 5 5 5 5 5 5 4 4 3 3 3 2 1 2 2 3 2 3 4 5
9 9 10 10 9 7 9 14 14 11 10 7 7 1 5 1 1 1 3 2 1 1 2 3 3 3 3 2 3 2 3 3 2 3 2 2 1 1 2 3 3 4 4 4
9 9 7 9 8 9 4 2 8 10 8 6 4 0 1 1 3 3 1 0 1 0 2 3 3 3 3 4 3 3 4 4 4 3 2 2 3 3 3 3 4 4 3 3
8 7 6 7 9 9 5 5 6 8 8 9 7 4 3 2 3 4 4 3 2 2 1 2 2 2 3 3 2 2 3 3 3 2 2 2 2 3 3 3 4 4 3 3
7 8 7 7 7 8 3 11 8 5 6 9 9 7 5 4 3 4 5 4 3 3 2 1 1 2 1 1 1 2 3 2 2 2 2 2 2 3 4 4 4 3 3 4
8 7 9 9 8 6 8 11 9 5 4 10 9 6 5 2 6 6 5 5 3 3 2 1 0 1 1 1 2 3 4 3 1 1 2 2 3 4 5 5 4 4 4 4
11 7 8 8 9 6 10 9 6 2 6 8 7 6 5 7 8 7 6 5 3 2 2 1 0 1 0 0 2 3 4 3 2 0 2 4 4 5 5 5 5 5 5 5
10 8 4 6 2 5 6 4 3 2 4 6 6 6 6 6 6 7 6 5 3 3 3 1 0 1 1 1 1 2 4 5 4 3 4 5 6 6 6 6 6 5 5 5
8 10 7 5 5 9 6 5 5 2 1 5 5 5 5 5 7 7 6 5 4 4 4 3 3 3 3 4 5 5 5 5 5 5 5 5 5 6 6 5 5 5 5 4
7 5 7 8 6 4 7 7 8 6 5 5 5 4 4 6 7 7 7 6 5 4 4 4 4 4 5 7 8 8 7 7 7 6 6 6 5 5 5 5 5 6 6 6
12 9 7 6 7 8 9 12 11 10 9 8 7 6 5 6 7 8 7 6 5 5 5 5 6 6 7 8 8 8 8 7 7 6 6 5 5 5 5 5 5 8 9 10
Wind_Direction
204 218 223 218 226 275 264 261 275 120 126 272 289 280 185 165 181 216 234 227 217 89 87 89 73 63 48 38 353 344 31 27 17 14 342 347 345 338 355 0 8 349 347 346
200 221 214 140 127 251 273 281 301 46 96 342 294 281 223 165 179 203 253 276 212 120 98 102 83 58 38 34 3 6 29 22 21 13 350 340 348 333 355 354 359 356 355 353
213 215 179 171 183 249 271 292 348 347 334 262 263 264 212 155 161 175 202 290 321 69 62 56 55 64 27 38 26 9 23 19 28 6 8 351 343 339 0 353 354 343 336 354
179 168 201 208 208 234 295 45 358 310 289 274 211 284 164 156 165 187 186 189 205 93 96 79 57 53 30 42 37 12 20 17 24 6 9 348 356 354 340 338 342 336 343 0
168 197 209 226 83 25 34 13 301 282 276 281 239 245 145 143 168 164 143 150 141 124 115 106 90 69 43 47 50 21 22 15 20 355 330 330 1 332 324 331 340 340 339 348
166 188 203 85 81 46 55 267 253 246 256 257 231 234 132 138 114 105 120 136 140 131 129 131 117 113 91 77 62 21 34 9 359 333 326 342 352 336 332 345 346 339 331 342
175 162 114 123 159 180 228 255 253 215 214 216 119 173 91 97 86 73 77 107 124 126 150 145 133 124 80 63 65 1 2 6 3 340 333 343 352 331 343 1 338 333 333 342
198 181 164 184 247 287 238 274 288 302 287 123 152 174 102 104 105 109 127 133 139 150 156 142 144 150 171 132 84 14 337 310 314 326 333 332 331 339 360 345 326 334 331 329
273 124 120 133 133 299 276 245 321 319 294 284 171 129 122 134 144 143 147 150 176 163 155 166 166 168 167 124 107 283 292 295 296 299 310 315 341 356 352 331 339 343 332 330
283 140 159 151 177 204 294 334 309 262 298 295 164 150 138 144 136 147 163 173 180 173 170 171 163 170 177 173 189 222 235 267 295 323 315 329 326 349 322 302 333 327 314 313
275 230 162 172 204 201 187 218 243 275 276 284 331 77 79 99 84 58 85 136 156 166 166 161 155 163 168 201 218 221 229 229 243 300 313 313 317 337 307 313 324 312 310 324
274 300 218 178 166 136 220 253 258 265 299 296 305 99 100 104 113 141 287 135 143 144 154 159 165 178 200 215 256 260 301 303 227 315 319 311 321 324 324 339 337 331 323 329
333 276 263 148 159 171 216 221 239 275 296 275 264 124 154 149 158 159 164 176 159 157 170 173 178 186 209 217 246 243 216 258 28 314 297 304 321 328 335 337 353 340 335 337
330 273 276 291 38 142 199 198 206 230 244 261 250 129 165 138 112 103 133 176 184 173 175 183 179 189 201 211 231 251 169 120 1 321 290 302 329 332 344 355 350 338 332 327
243 263 275 279 195 221 241 199 197 224 248 274 332 14 13 64 78 77 136 179 190 193 178 180 183 198 199 196 207 241 162 144 190 264 283 308 334 323 350 336 331 334 332 333
236 267 275 276 246 231 249 239 212 215 236 258 285 293 96 95 120 183 194 165 190 199 191 184 187 201 209 195 195 213 187 173 193 219 226 191 246 326 341 320 334 333 317 311
218 240 263 271 244 216 246 232 221 215 215 232 249 249 93 85 78 48 39 41 301 191 164 175 193 202 213 212 200 198 142 149 200 230 212 165 172 273 294 304 309 293 290 299
233 236 250 264 248 228 246 36 191 199 208 210 234 237 115 119 122 140 154 185 305 44 141 163 182 194 208 225 206 182 170 197 212 214 171 165 190 217 242 259 272 274 283 303
262 256 253 256 261 257 202 173 177 184 207 199 202 199 175 156 172 159 128 105 76 59 88 131 172 217 213 220 231 232 216 206 204 178 160 194 213 219 234 253 265 272 274 281
247 270 258 256 258 265 271 146 150 177 226 184 180 176 168 187 209 123 106 99 88 74 67 71 134 260 283 339 8 312 297 282 249 184 173 188 214 236 243 247 256 267 272 270
200 229 242 257 264 264 106 121 141 196 229 156 162 159 167 149 89 109 106 97 92 96 89 85 276 295 342 344 309 281 283 288 274 151 166 206 236 244 243 240 243 256 264 269
182 206 215 224 240 238 137 149 177 138 108 130 141 143 129 104 106 110 104 98 94 102 106 110 283 305 318 298 290 289 300 321 339 226 210 230 240 249 254 235 235 240 251 263
201 208 214 213 198 101 144 147 103 93 151 138 136 127 127 132 128 118 110 100 85 75 80 71 36 354 346 347 339 317 328 337 326 293 253 240 240 239 237 235 237 238 239 244
240 211 234 249 164 174 183 147 147 185 173 109 117 132 152 147 131 122 114 105 90 70 59 42 37 37 26 25 33 21 359 343 328 311 295 277 263 256 242 229 226 231 235 241
277 239 216 239 248 185 178 188 181 179 176 149 149 159 154 135 129 124 114 103 93 82 71 58 52 43 35 35 36 24 7 355 340 323 312 305 293 281 271 254 232 229 228 223
268 261 223 222 235 225 199 190 185 180 182 171 162 150 138 137 131 118 109 103 95 84 74 65 55 49 45 41 35 19 3 354 344 334 331 328 324 318 311 298 286 253 244 246